Temp
13 13 11 11 12 11 11 11 11 11 11 11 11 12 11 11 11 12 12 8 9 9 10 8 11 11 11 11 11 11 11 11 11 11 11 11 10 10 10 10 10 10 10
12 11 12 11 12 11 11 11 10 11 11 11 11 11 11 11 11 11 11 10 10 10 12 10 11 11 11 11 11 11 11 11 11 11 11 10 10 10 9 9 9 9 9
11 12 12 12 12 12 12 11 11 11 11 11 11 11 11 11 11 11 11 11 10 10 11 12 11 11 11 11 11 11 11 11 11 11 10 10 10 9 10 9 9 9 9
11 11 12 12 12 12 12 12 11 10 10 11 11 11 11 11 11 11 11 11 11 11 11 11 11 11 11 11 11 11 10 10 11 11 10 10 10 10 9 9 9 9 8
10 11 13 12 12 12 12 12 11 11 11 11 11 11 11 11 11 11 11 10 10 10 11 11 11 11 11 11 11 10 10 10 10 10 10 10 9 9 9 9 9 8 8
11 11 13 12 12 12 12 11 11 11 11 11 11 11 11 11 11 11 11 10 10 10 11 11 10 10 11 10 10 10 10 10 10 10 10 10 9 9 9 9 8 8 8
11 12 12 12 12 12 12 11 11 11 11 11 11 11 10 10 10 10 10 10 10 10 10 10 10 10 11 10 10 10 10 10 10 10 9 10 9 9 9 8 8 8 8
11 10 11 12 12 12 12 11 11 11 11 11 10 10 9 8 9 10 10 10 10 10 10 10 10 10 10 10 10 10 10 9 8 8 7 8 9 9 8 8 8 8 8
10 10 11 12 11 12 12 12 11 11 11 11 10 11 9 9 9 9 10 10 10 10 10 10 10 10 10 10 10 10 10 10 9 8 8 8 8 9 8 8 8 8 7
10 10 10 11 11 12 12 12 11 11 12 11 10 10 11 11 10 9 10 10 10 10 10 10 10 10 10 10 10 10 10 10 10 9 9 9 8 8 8 8 8 8 8
10 10 10 10 10 10 11 11 11 11 11 11 11 11 11 11 11 11 10 10 10 11 10 10 10 10 10 10 11 11 11 11 10 10 10 9 9 9 8 8 8 8 8
10 10 10 10 9 10 9 10 10 11 10 11 11 11 11 11 11 11 11 11 11 12 12 11 11 10 11 11 11 11 11 11 11 10 10 10 10 9 9 8 8 8 8
10 10 10 9 9 9 9 9 10 10 10 10 10 11 11 11 11 11 11 11 11 11 11 11 11 11 11 11 11 12 11 11 11 11 11 11 10 10 10 10 9 8 8
9 10 9 9 9 9 9 9 9 9 9 10 9 9 10 11 11 11 11 11 10 10 10 10 11 11 11 11 11 12 12 11 11 11 11 11 11 10 10 10 10 9 8
9 9 9 9 9 9 9 9 9 9 10 9 9 9 9 9 11 11 11 11 11 10 9 10 10 11 10 10 11 11 11 11 11 11 11 11 11 10 10 10 10 10 9
9 9 9 9 9 9 9 9 9 9 9 9 9 9 9 10 11 11 11 11 10 10 9 9 10 11 10 10 11 11 11 11 11 11 11 10 10 10 10 9 9 9 8
10 10 9 9 9 9 9 9 9 9 9 9 10 10 10 11 11 11 11 10 10 10 9 10 10 10 10 10 11 11 11 11 11 11 11 11 10 10 9 9 9 9 8
9 9 10 9 9 9 9 9 9 9 9 9 10 10 11 11 10 11 11 10 10 10 10 10 10 10 10 10 11 10 10 10 10 10 11 10 10 10 9 9 8 8 8
9 9 9 9 9 9 9 9 9 9 10 10 10 10 10 10 10 10 10 10 10 10 10 10 9 10 10 10 10 10 10 10 10 10 10 10 10 10 10 9 8 8 8
8 9 9 9 9 9 9 9 9 9 10 10 10 10 10 10 10 10 10 10 10 9 9 8 8 9 9 9 8 8 8 8 8 9 9 9 9 9 9 9 9 8 7
9 9 8 8 9 9 9 8 9 9 9 9 9 9 10 9 10 10 9 9 9 8 8 7 7 7 7 7 7 7 7 8 8 7 7 8 8 8 8 8 8 7 7
9 9 8 8 8 8 8 8 8 8 8 8 8 8 8 8 9 9 9 8 8 7 7 7 7 7 7 7 7 7 8 8 7 7 7 8 7 8 7 7 8 6 5
9 9 9 9 9 9 8 8 8 8 8 8 8 8 8 8 8 9 9 8 8 8 8 8 7 7 7 8 8 8 7 7 8 7 7 7 7 7 6 5 5 4 2
9 8 9 9 9 9 9 8 8 8 8 8 8 8 8 9 9 9 9 9 9 9 8 8 8 8 8 8 7 8 8 7 7 7 6 5 4 3 2 1 0 -0 -1
8 9 8 8 8 9 9 9 9 9 9 9 9 8 8 8 8 8 8 8 8 8 8 8 8 8 7 7 7 6 5 5 4 3 2 1 -1 -1 -3 -3 -3 -3 -3
6 6 7 8 8 8 8 9 9 9 9 8 8 8 8 8 8 8 8 8 8 7 7 5 4 3 -1 0 1 1 1 0 0 -1 -3 -3 -3 -3 -4 -4 -4 -4 -5
Height
1486 1491 1496 1501 1506 1511 1516 1521 1523 1527 1532 1536 1539 1542 1544 1547 1549 1551 1553 1555 1556 1558 1559 1564 1564 1566 1569 1570 1573 1574 1576 1577 1578 1580 1580 1583 1584 1585 1587 1587 1587 1588 1588
1482 1485 1491 1497 1503 1510 1515 1521 1525 1527 1532 1535 1540 1543 1545 1547 1549 1551 1554 1555 1557 1559 1560 1565 1566 1568 1569 1571 1574 1575 1577 1577 1578 1580 1581 1582 1585 1585 1587 1587 1588 1587 1589
1478 1481 1487 1494 1501 1508 1513 1520 1525 1528 1532 1536 1540 1543 1546 1547 1550 1552 1554 1556 1558 1559 1562 1565 1567 1569 1570 1572 1574 1576 1577 1578 1579 1580 1581 1582 1585 1585 1587 1588 1588 1589 1589
1473 1478 1485 1492 1499 1506 1511 1517 1523 1526 1532 1535 1538 1541 1546 1548 1550 1552 1554 1557 1558 1560 1563 1566 1568 1569 1570 1571 1573 1576 1578 1578 1579 1580 1581 1582 1584 1585 1586 1586 1587 1588 1589
1464 1473 1483 1490 1497 1504 1509 1515 1522 1525 1529 1534 1537 1541 1545 1548 1550 1552 1554 1556 1558 1561 1563 1567 1568 1569 1570 1571 1573 1575 1577 1578 1579 1580 1580 1581 1583 1584 1585 1586 1587 1586 1587
1465 1474 1484 1489 1496 1502 1507 1513 1521 1525 1528 1532 1538 1542 1545 1549 1551 1553 1554 1555 1558 1561 1563 1566 1568 1569 1570 1570 1572 1574 1575 1577 1578 1579 1579 1580 1581 1582 1583 1584 1585 1585 1585
1468 1478 1483 1489 1495 1501 1505 1513 1519 1524 1526 1530 1535 1540 1544 1548 1551 1553 1555 1556 1557 1560 1563 1564 1566 1568 1568 1569 1570 1572 1574 1575 1576 1576 1577 1578 1578 1580 1581 1581 1581 1582 1583
1471 1477 1483 1488 1494 1499 1505 1511 1516 1520 1525 1528 1532 1538 1542 1547 1549 1551 1553 1555 1558 1560 1562 1562 1564 1565 1566 1567 1568 1569 1571 1572 1573 1574 1575 1575 1575 1577 1578 1578 1578 1578 1579
1469 1474 1483 1488 1494 1498 1502 1508 1513 1518 1521 1526 1530 1533 1538 1541 1544 1548 1549 1551 1555 1557 1559 1562 1561 1562 1563 1564 1565 1566 1567 1568 1569 1571 1572 1572 1572 1573 1573 1573 1574 1574 1574
1467 1473 1478 1487 1492 1498 1502 1506 1511 1516 1520 1523 1528 1531 1534 1537 1541 1544 1545 1547 1551 1553 1555 1557 1558 1558 1559 1560 1561 1561 1563 1564 1565 1566 1567 1568 1567 1566 1567 1567 1567 1568 1568
1465 1471 1475 1482 1490 1496 1501 1505 1509 1513 1517 1521 1524 1528 1532 1533 1536 1538 1540 1544 1545 1547 1550 1551 1552 1553 1554 1555 1555 1556 1557 1558 1559 1560 1560 1561 1561 1561 1560 1559 1560 1560 1560
1460 1467 1473 1480 1487 1492 1498 1503 1507 1511 1515 1518 1522 1524 1526 1528 1529 1534 1537 1539 1540 1543 1544 1545 1545 1546 1547 1548 1549 1549 1550 1551 1552 1553 1553 1554 1554 1554 1553 1552 1551 1551 1551
1462 1466 1472 1477 1482 1487 1494 1498 1503 1507 1510 1513 1517 1521 1524 1525 1527 1531 1532 1534 1537 1539 1539 1538 1539 1540 1541 1541 1542 1543 1544 1544 1545 1546 1546 1546 1545 1544 1544 1544 1543 1542 1541
1462 1467 1469 1474 1479 1484 1489 1494 1498 1503 1506 1509 1512 1515 1519 1521 1522 1526 1527 1529 1531 1532 1532 1532 1533 1533 1535 1535 1536 1536 1536 1537 1537 1538 1538 1537 1536 1536 1535 1534 1534 1533 1532
1460 1464 1468 1472 1478 1482 1485 1489 1492 1497 1501 1504 1507 1512 1514 1517 1519 1520 1522 1524 1523 1523 1521 1523 1525 1526 1527 1527 1528 1528 1528 1528 1528 1528 1527 1526 1526 1525 1524 1523 1523 1522 1521
1456 1460 1465 1470 1474 1479 1481 1484 1488 1492 1495 1498 1502 1506 1508 1511 1512 1514 1515 1516 1517 1516 1513 1516 1515 1517 1519 1519 1519 1519 1519 1518 1517 1517 1516 1515 1514 1513 1513 1512 1511 1510 1509
1454 1458 1463 1466 1470 1474 1478 1481 1485 1487 1490 1494 1496 1499 1501 1504 1505 1506 1508 1509 1508 1508 1504 1504 1506 1508 1507 1507 1508 1508 1508 1507 1505 1505 1504 1503 1502 1501 1501 1499 1498 1497 1496
1453 1456 1460 1464 1467 1470 1473 1475 1478 1481 1484 1487 1489 1491 1492 1495 1496 1498 1498 1498 1498 1499 1496 1494 1497 1497 1496 1496 1496 1495 1494 1492 1490 1490 1489 1489 1488 1487 1487 1486 1486 1484 1482
1449 1452 1455 1457 1461 1463 1466 1469 1471 1474 1475 1477 1479 1480 1481 1484 1484 1486 1487 1487 1488 1488 1487 1484 1484 1486 1484 1483 1481 1480 1478 1476 1474 1473 1474 1474 1474 1473 1473 1472 1471 1470 1469
1445 1447 1449 1452 1454 1456 1457 1460 1462 1464 1466 1467 1469 1469 1471 1472 1473 1476 1477 1476 1477 1476 1475 1473 1472 1471 1471 1471 1470 1467 1463 1462 1458 1460 1458 1458 1459 1459 1458 1458 1457 1456 1454
1438 1441 1443 1445 1447 1448 1449 1451 1454 1455 1456 1458 1459 1459 1460 1461 1463 1464 1465 1465 1464 1463 1463 1462 1460 1459 1458 1458 1455 1455 1450 1449 1447 1447 1445 1442 1444 1444 1444 1443 1441 1441 1441
1432 1433 1435 1436 1437 1438 1440 1442 1445 1446 1446 1446 1446 1446 1447 1448 1447 1448 1450 1451 1452 1451 1449 1449 1446 1444 1442 1441 1442 1441 1438 1438 1433 1434 1431 1427 1428 1426 1429 1428 1427 1428 1428
1425 1425 1426 1428 1428 1430 1431 1433 1434 1435 1436 1436 1435 1435 1434 1434 1434 1435 1435 1436 1437 1437 1437 1436 1429 1428 1427 1428 1429 1427 1425 1423 1419 1420 1418 1414 1414 1413 1414 1414 1413 1414 1417
1418 1419 1419 1421 1422 1423 1419 1419 1421 1423 1424 1424 1424 1423 1423 1423 1423 1423 1423 1421 1421 1423 1420 1421 1420 1417 1416 1413 1412 1412 1412 1410 1408 1405 1402 1401 1402 1401 1402 1401 1406 1407 1409
1410 1410 1410 1410 1411 1412 1409 1408 1408 1411 1412 1413 1414 1413 1410 1408 1409 1410 1409 1407 1408 1405 1400 1402 1403 1399 1394 1392 1394 1396 1394 1396 1393 1391 1390 1388 1397 1394 1400 1399 1403 1402 1407
1404 1404 1403 1402 1401 1401 1399 1399 1400 1402 1402 1404 1400 1400 1398 1395 1393 1395 1394 1394 1390 1389 1387 1383 1383 1383 1382 1385 1383 1381 1386 1386 1383 1387 1391 1392 1391 1395 1396 1399 1397 1400 1405
Wind_Speed
37 33 44 39 36 46 45 41 36 32 29 27 22 17 16 13 10 11 14 19 19 18 16 16 16 16 15 13 12 12 11 10 9 8 8 7 6 5 4 4 4 4 4
37 46 45 41 37 47 46 43 35 33 31 25 21 19 16 12 9 8 14 16 15 16 15 16 15 15 14 12 11 10 9 9 9 8 7 6 5 5 5 5 5 5 5
39 49 48 44 39 47 47 45 38 35 32 26 20 21 17 13 10 7 12 14 17 16 16 16 16 15 13 11 11 9 9 8 8 8 7 6 6 6 6 6 6 6 6
41 45 48 42 40 45 45 47 44 38 31 24 23 25 18 15 12 8 10 13 16 17 17 17 16 14 13 12 10 9 9 8 8 8 7 7 8 8 9 7 7 8 7
54 55 49 43 43 44 44 48 45 41 31 25 25 23 18 16 12 9 10 13 15 17 17 16 15 14 13 11 10 10 10 9 10 10 8 9 10 10 9 10 10 9 8
40 45 43 43 43 44 45 48 47 40 34 28 23 19 17 18 14 10 10 11 14 15 16 16 17 16 14 12 12 12 12 12 13 13 11 11 11 12 12 12 12 11 11
36 36 38 40 41 43 44 47 46 38 31 27 23 19 19 19 16 14 12 9 12 14 16 16 17 16 15 15 14 14 14 14 15 13 14 15 14 15 16 16 16 16 15
32 33 36 39 42 41 44 45 46 39 32 28 25 25 23 22 22 20 16 13 13 14 16 17 18 19 18 17 17 17 16 17 19 21 19 18 16 15 17 19 20 20 20
37 37 36 39 41 41 43 43 46 40 37 31 29 24 16 11 25 24 22 18 17 17 20 22 21 21 20 20 20 20 20 20 21 22 22 25 24 23 22 22 23 24 25
37 39 40 39 39 38 40 40 44 42 36 37 34 35 25 15 17 14 26 24 20 22 24 28 27 26 24 24 24 24 24 24 24 25 25 26 29 31 31 30 30 30 30
39 39 40 43 39 38 41 39 37 37 37 38 37 35 33 23 21 20 17 25 23 25 32 32 31 30 28 28 28 27 26 25 26 27 27 27 29 31 34 35 36 37 37
40 42 38 39 39 40 39 41 38 36 38 39 39 37 38 35 26 24 22 22 23 29 28 31 36 33 31 31 29 27 25 26 27 27 29 30 32 33 35 37 39 40 42
28 33 36 40 41 42 41 39 42 40 41 41 38 42 39 40 36 32 28 25 27 26 25 26 25 25 28 28 27 28 28 28 30 31 30 29 31 34 36 39 41 43 44
34 32 39 37 36 38 42 41 39 42 34 38 35 33 41 39 38 36 33 29 28 30 31 32 32 30 28 31 31 28 29 27 28 34 35 37 34 34 38 41 41 43 45
33 32 37 37 37 39 41 42 42 37 34 41 40 41 34 36 38 37 36 36 33 35 35 40 36 34 33 35 35 34 35 33 34 35 40 45 43 41 39 42 42 42 39
26 30 42 40 37 34 36 38 39 35 36 34 34 38 43 44 42 41 40 38 38 36 38 46 43 43 45 43 40 42 43 44 44 43 41 44 47 49 47 44 44 45 46
25 29 34 41 42 39 37 34 35 35 37 39 40 42 45 44 45 44 44 46 46 47 49 45 49 45 44 42 46 49 51 51 51 50 49 46 46 47 48 44 45 46 48
29 30 32 36 43 45 44 44 44 45 47 47 48 46 47 48 47 48 51 51 53 54 55 52 50 52 52 51 54 54 57 59 59 56 52 49 47 47 46 44 48 48 45
30 33 36 37 40 43 47 49 47 52 54 53 54 55 53 51 53 53 53 54 54 56 56 55 55 56 59 59 58 57 59 60 60 58 54 52 44 40 40 40 43 47 48
30 31 34 36 38 40 43 45 49 51 54 56 56 57 56 57 58 58 58 59 60 60 59 57 57 61 61 61 58 58 59 57 58 53 51 50 46 44 44 45 47 48 51
28 28 33 37 39 41 43 44 45 49 54 57 58 59 60 61 61 61 62 63 61 59 58 52 50 49 50 50 49 52 54 57 54 54 55 55 51 52 50 46 46 47 44
31 32 35 36 37 40 43 45 45 47 49 51 55 57 58 59 63 64 60 59 58 54 54 54 53 51 53 55 52 51 54 54 51 48 49 54 50 52 51 47 48 45 40
29 34 37 38 39 40 41 42 43 47 50 51 53 53 54 54 52 52 52 51 51 52 54 59 59 55 54 57 56 53 50 51 55 50 50 53 52 46 46 44 37 33 31
29 32 35 35 36 38 45 45 45 43 43 47 50 51 54 51 51 51 51 50 49 50 53 54 58 63 66 65 57 60 61 54 50 49 48 37 37 32 31 26 24 25 27
19 27 31 32 38 38 45 46 47 45 46 46 45 51 52 53 53 54 57 57 56 57 60 59 59 63 66 73 69 64 63 53 45 35 29 26 20 20 18 14 15 16 17
11 12 19 26 32 36 41 47 49 46 45 43 47 52 55 56 58 57 59 55 54 55 54 51 45 38 23 23 19 18 17 17 19 9 8 8 10 13 9 13 15 14 17
Wind_Direction
206 220 204 201 199 185 183 179 180 183 178 175 176 180 169 160 156 175 180 170 166 164 162 168 165 164 164 163 161 161 161 158 158 159 157 156 149 145 152 156 158 158 142
215 191 200 201 197 187 184 182 181 179 175 179 184 185 178 174 167 172 190 183 178 175 174 176 173 173 172 171 173 173 178 178 175 179 180 170 177 178 191 193 185 175 174
196 199 199 201 194 188 183 184 180 181 179 182 185 183 183 183 178 179 199 201 188 185 185 184 183 180 176 177 182 188 191 192 192 195 195 198 201 203 215 210 201 195 197
209 207 201 199 194 190 186 185 181 182 184 184 185 177 185 188 187 190 205 210 202 194 193 190 189 189 187 188 188 198 205 201 210 208 211 222 222 222 218 210 213 213 220
198 202 200 196 191 188 185 183 183 186 182 180 182 181 186 194 192 197 202 208 209 205 199 196 197 201 198 197 203 211 219 220 226 225 226 231 227 229 228 224 227 225 221
190 192 197 194 189 187 186 185 185 188 190 184 179 187 193 196 198 203 197 202 205 208 202 205 208 207 209 212 217 226 232 234 238 239 236 244 242 245 240 238 242 241 240
187 193 199 193 190 190 186 188 188 184 188 186 182 183 189 197 211 212 209 207 206 211 213 214 221 223 224 229 232 237 244 252 249 247 244 247 246 252 249 247 252 252 254
189 195 204 195 192 190 189 191 189 183 187 194 188 180 185 200 210 211 215 221 233 234 235 229 230 234 235 242 245 248 254 254 248 253 264 265 261 260 258 260 261 262 264
198 194 204 198 194 192 190 191 190 192 191 197 202 190 173 204 207 214 218 221 234 245 252 249 246 246 247 251 253 255 257 260 261 258 263 266 274 278 275 271 269 268 268
205 198 201 200 197 195 194 192 194 201 200 200 205 209 208 209 193 212 219 224 237 248 253 254 254 255 256 258 259 261 263 265 266 266 267 265 267 273 276 275 275 276 274
214 206 203 198 201 201 200 197 198 204 209 208 207 212 216 215 219 208 212 223 233 257 251 253 255 257 261 265 264 265 266 268 267 268 269 270 269 270 274 278 278 277 276
196 201 200 200 203 207 207 209 206 212 215 217 220 216 216 216 211 212 222 231 230 250 262 261 256 258 262 264 266 266 267 265 265 266 268 273 274 274 274 275 277 277 277
205 208 208 207 210 212 212 213 218 220 220 215 221 221 227 226 227 237 239 240 244 253 257 262 262 265 265 263 266 267 270 270 269 267 270 273 277 280 282 279 277 277 279
219 228 216 216 216 218 215 224 225 224 224 229 223 229 228 230 232 240 241 242 242 262 261 260 268 268 266 265 269 271 269 270 273 273 277 276 273 278 281 280 278 276 277
216 219 216 216 219 222 222 224 229 228 235 230 227 234 235 237 237 237 242 246 251 248 262 262 263 264 272 274 269 269 274 274 276 282 280 276 273 278 284 277 274 276 276
225 218 216 219 221 224 227 230 232 230 229 231 233 229 236 238 242 244 247 251 257 260 265 267 266 275 273 272 271 270 274 274 281 280 283 277 274 275 279 274 272 278 274
235 231 226 223 224 226 227 226 228 233 237 239 237 236 239 243 246 247 250 256 253 260 268 273 269 267 273 278 274 273 275 277 280 282 281 279 275 274 274 270 269 276 278
236 238 240 237 234 233 235 234 236 240 242 241 243 243 247 249 247 248 252 252 254 260 265 268 271 266 273 273 275 277 278 279 280 281 280 279 276 270 269 267 268 271 277
240 240 243 244 244 247 244 249 247 244 245 247 250 252 256 252 251 251 254 258 261 265 269 269 267 271 274 277 278 280 282 282 282 281 278 280 276 276 273 273 275 274 275
250 247 246 247 250 252 253 252 252 250 249 251 254 255 256 256 257 257 259 262 266 268 270 266 264 268 271 275 275 278 280 282 283 283 284 281 278 274 275 276 279 276 276
258 253 252 251 252 253 254 255 257 258 257 257 258 259 260 261 262 262 265 267 268 267 266 262 261 263 265 267 263 271 274 282 281 279 277 280 283 286 282 278 280 277 275
269 266 261 257 257 257 257 257 257 258 260 261 262 263 264 264 264 265 266 267 266 261 263 262 263 261 261 265 268 266 272 274 270 270 273 278 277 280 278 273 277 272 270
272 272 271 270 269 268 267 264 262 260 261 262 264 266 267 268 270 271 272 272 270 269 267 264 262 262 264 268 269 267 262 265 269 267 263 268 267 258 264 259 259 257 252
255 261 270 274 278 279 266 266 266 263 264 263 262 264 265 267 268 270 271 271 270 269 266 265 264 266 264 260 257 262 264 261 263 264 260 251 246 244 242 239 243 237 238
260 255 251 251 251 249 256 262 263 260 260 266 267 261 258 259 261 262 261 265 265 262 263 264 261 259 258 259 260 261 263 265 256 247 238 232 229 215 213 213 214 215 223
300 287 265 254 247 245 250 251 257 259 255 251 252 255 258 254 256 256 255 250 249 248 249 250 251 244 258 266 265 258 256 246 229 202 221 205 185 196 195 210 211 223 235